TPC142 CYYZ-KATL

Flight info

Callsign TPC142
Flight time N/A
Altitude 43000
Route BETES3 FOXEE Q145 HVQ DCT HLRRY ONDRE1
Aircraft C750/M-SBDE3FGHRWXY/S

Departure

Time 2026-05-07 23:51
Airport Toronto Pearson International Airport (CYYZ)

Arrival

Time N/A
Airport Hartsfield Jackson Atlanta International Airport (KATL)
Time Latitude Longitude Altitude Speed Heading
2026-05-07 23:21 43.68287 -79.65636 566 ft 0 kts 135°
2026-05-07 23:44 43.68286 -79.65635 566 ft 0 kts 135°
2026-05-07 23:45 43.68287 -79.65624 566 ft 1 kts 62°
2026-05-07 23:45 43.68310 -79.65596 568 ft 5 kts 41°
2026-05-07 23:45 43.68329 -79.65568 566 ft 3 kts 63°
2026-05-07 23:45 43.68324 -79.65534 565 ft 6 kts 121°
2026-05-07 23:46 43.68295 -79.65504 565 ft 4 kts 169°
2026-05-07 23:46 43.68255 -79.65523 565 ft 8 kts 214°
2026-05-07 23:46 43.68198 -79.65595 565 ft 14 kts 225°
2026-05-07 23:46 43.68116 -79.65718 568 ft 21 kts 226°
2026-05-07 23:47 43.68011 -79.65868 574 ft 20 kts 226°
2026-05-07 23:47 43.67919 -79.66003 571 ft 18 kts 226°
2026-05-07 23:47 43.67840 -79.66117 575 ft 15 kts 226°
2026-05-07 23:47 43.67768 -79.66219 569 ft 15 kts 225°
2026-05-07 23:48 43.67699 -79.66320 573 ft 14 kts 227°
2026-05-07 23:48 43.67636 -79.66413 571 ft 13 kts 228°
2026-05-07 23:48 43.67575 -79.66497 568 ft 10 kts 217°
2026-05-07 23:48 43.67518 -79.66506 568 ft 8 kts 143°
2026-05-07 23:49 43.67505 -79.66493 572 ft 0 kts 143°
2026-05-07 23:50 43.67492 -79.66480 567 ft 7 kts 143°
2026-05-07 23:50 43.67449 -79.66423 569 ft 11 kts 119°
2026-05-07 23:50 43.67465 -79.66333 568 ft 8 kts 44°
2026-05-07 23:50 43.67528 -79.66247 574 ft 33 kts 46°
2026-05-07 23:51 43.67946 -79.65646 577 ft 131 kts 46°
2026-05-07 23:51 43.68576 -79.64687 1156 ft 137 kts 48°
2026-05-07 23:51 43.69324 -79.63770 1704 ft 158 kts 30°
2026-05-07 23:51 43.70310 -79.62893 2315 ft 177 kts 32°
2026-05-07 23:52 43.71335 -79.61847 3104 ft 189 kts 34°
2026-05-07 23:52 43.72403 -79.60716 3954 ft 197 kts 34°
2026-05-07 23:52 43.73523 -79.59538 4745 ft 211 kts 34°
2026-05-07 23:52 43.74768 -79.58239 5252 ft 237 kts 34°
2026-05-07 23:53 43.75927 -79.56429 5553 ft 273 kts 63°
2026-05-07 23:53 43.76118 -79.53795 6333 ft 279 kts 102°
2026-05-07 23:53 43.75230 -79.51458 6957 ft 282 kts 131°
2026-05-07 23:53 43.73816 -79.49522 7020 ft 284 kts 140°
2026-05-07 23:54 43.72383 -79.47629 7021 ft 286 kts 136°
2026-05-07 23:54 43.71066 -79.45580 7019 ft 285 kts 132°
2026-05-07 23:54 43.69791 -79.43468 7015 ft 285 kts 132°
2026-05-07 23:54 43.68483 -79.41411 7009 ft 287 kts 134°
2026-05-07 23:55 43.66998 -79.39587 6947 ft 283 kts 154°
2026-05-07 23:55 43.65160 -79.38827 6981 ft 275 kts 179°
2026-05-07 23:55 43.63280 -79.39223 7522 ft 270 kts 205°
2026-05-07 23:55 43.61629 -79.40292 8911 ft 260 kts 211°
2026-05-07 23:56 43.60007 -79.41431 9899 ft 264 kts 212°
2026-05-07 23:56 43.58347 -79.42628 10522 ft 279 kts 212°
2026-05-07 23:56 43.56547 -79.43920 10723 ft 305 kts 211°
2026-05-07 23:56 43.54635 -79.45426 10848 ft 325 kts 219°
2026-05-07 23:57 43.52853 -79.47347 11627 ft 325 kts 221°
2026-05-07 23:57 43.51057 -79.49275 12372 ft 329 kts 220°
2026-05-07 23:57 43.49232 -79.51198 13155 ft 332 kts 220°
2026-05-07 23:57 43.47190 -79.52755 13775 ft 340 kts 205°
2026-05-07 23:58 43.44995 -79.54001 14474 ft 342 kts 206°
2026-05-07 23:58 43.42809 -79.55337 15090 ft 346 kts 207°
2026-05-07 23:58 43.40602 -79.56701 15711 ft 350 kts 207°
2026-05-07 23:58 43.38357 -79.58038 16345 ft 355 kts 207°
2026-05-07 23:59 43.36118 -79.59359 16961 ft 359 kts 207°
2026-05-07 23:59 43.33772 -79.60764 17619 ft 363 kts 207°
2026-05-07 23:59 43.31471 -79.62149 18283 ft 367 kts 207°
2026-05-07 23:59 43.29116 -79.63555 18878 ft 371 kts 207°
2026-05-08 00:00 43.26737 -79.64971 19501 ft 374 kts 207°
2026-05-08 00:00 43.24338 -79.66401 20128 ft 378 kts 207°
2026-05-08 00:00 43.21916 -79.67845 20748 ft 381 kts 207°
2026-05-08 00:00 43.19470 -79.69302 21358 ft 385 kts 207°
2026-05-08 00:01 43.16998 -79.70771 21970 ft 389 kts 207°
2026-05-08 00:01 43.14513 -79.72247 22643 ft 390 kts 208°
2026-05-08 00:01 43.12007 -79.73734 23289 ft 394 kts 208°
2026-05-08 00:01 43.09484 -79.75232 23822 ft 397 kts 208°
2026-05-08 00:02 43.06940 -79.76739 24357 ft 399 kts 208°
2026-05-08 00:02 43.04382 -79.78252 24917 ft 401 kts 208°
2026-05-08 00:02 43.01810 -79.79774 25473 ft 404 kts 209°
2026-05-08 00:02 42.99213 -79.81311 25914 ft 409 kts 209°
2026-05-08 00:03 42.96590 -79.82859 26451 ft 411 kts 210°
2026-05-08 00:03 42.93966 -79.84403 27111 ft 411 kts 210°
2026-05-08 00:03 42.91333 -79.85956 27671 ft 414 kts 210°
2026-05-08 00:03 42.88680 -79.87520 28243 ft 416 kts 210°
2026-05-08 00:04 42.86011 -79.89089 28802 ft 419 kts 211°
2026-05-08 00:04 42.83255 -79.90501 29302 ft 429 kts 205°
2026-05-08 00:04 42.80365 -79.91452 29842 ft 438 kts 199°
2026-05-08 00:04 42.77351 -79.92199 30256 ft 441 kts 199°
2026-05-08 00:05 42.74339 -79.92971 30765 ft 441 kts 200°
2026-05-08 00:05 42.71316 -79.93761 31222 ft 443 kts 200°
2026-05-08 00:05 42.68291 -79.94531 31800 ft 442 kts 200°
2026-05-08 00:05 42.65270 -79.95291 32329 ft 442 kts 200°
2026-05-08 00:06 42.62244 -79.96061 32866 ft 442 kts 200°
2026-05-08 00:06 42.59223 -79.96835 33411 ft 442 kts 200°
2026-05-08 00:06 42.56194 -79.97604 33978 ft 440 kts 200°
2026-05-08 00:06 42.53192 -79.98361 34524 ft 438 kts 200°
2026-05-08 00:07 42.50185 -79.99127 34929 ft 440 kts 200°
2026-05-08 00:07 42.47171 -79.99896 35335 ft 442 kts 200°
2026-05-08 00:07 42.44142 -80.00661 35764 ft 443 kts 200°
2026-05-08 00:07 42.41107 -80.01425 36193 ft 444 kts 200°
2026-05-08 00:08 42.38069 -80.02193 36627 ft 445 kts 200°
2026-05-08 00:08 42.35016 -80.02965 37064 ft 446 kts 200°
2026-05-08 00:08 42.31964 -80.03734 37503 ft 448 kts 200°
2026-05-08 00:08 42.28901 -80.04505 37948 ft 449 kts 200°
2026-05-08 00:09 42.25824 -80.05284 38398 ft 449 kts 200°
2026-05-08 00:09 42.22841 -80.06379 38769 ft 442 kts 206°
2026-05-08 00:09 42.19912 -80.07650 39166 ft 443 kts 206°
2026-05-08 00:09 42.16973 -80.08879 39559 ft 442 kts 205°
2026-05-08 00:10 42.14069 -80.10088 40006 ft 441 kts 205°
2026-05-08 00:10 42.11148 -80.11331 40426 ft 440 kts 206°
2026-05-08 00:10 42.08228 -80.12578 40847 ft 440 kts 205°
2026-05-08 00:10 42.05305 -80.13811 41279 ft 440 kts 205°
2026-05-08 00:11 42.02382 -80.15036 41712 ft 440 kts 205°
2026-05-08 00:11 41.99466 -80.16265 42135 ft 439 kts 205°
2026-05-08 00:11 41.96549 -80.17497 42501 ft 440 kts 205°
2026-05-08 00:11 41.93627 -80.18728 42832 ft 441 kts 205°
2026-05-08 00:12 41.90672 -80.19969 42938 ft 448 kts 205°
2026-05-08 00:12 41.87666 -80.21234 42942 ft 457 kts 205°
2026-05-08 00:12 41.82540 -80.23381 42959 ft 471 kts 204°
2026-05-08 00:13 41.75124 -80.26482 42955 ft 487 kts 204°
2026-05-08 00:13 41.68609 -80.29197 42953 ft 491 kts 204°
2026-05-08 00:14 41.63130 -80.31481 42946 ft 494 kts 204°
2026-05-08 00:14 41.56617 -80.34186 42922 ft 492 kts 204°
2026-05-08 00:15 41.50081 -80.36899 42946 ft 491 kts 205°
2026-05-08 00:15 41.43548 -80.39604 42967 ft 492 kts 204°
2026-05-08 00:16 41.37013 -80.42303 42953 ft 492 kts 205°
2026-05-08 00:16 41.30490 -80.44992 42978 ft 490 kts 205°
2026-05-08 00:17 41.23978 -80.47672 42975 ft 491 kts 205°
2026-05-08 00:17 41.17473 -80.50426 42971 ft 488 kts 206°
2026-05-08 00:18 41.11101 -80.53381 42976 ft 482 kts 207°
2026-05-08 00:18 41.04740 -80.56302 42978 ft 485 kts 207°
2026-05-08 00:19 40.98365 -80.59228 42984 ft 485 kts 207°
2026-05-08 00:19 40.92000 -80.62141 42984 ft 481 kts 207°
2026-05-08 00:20 40.85680 -80.65034 42999 ft 481 kts 207°
2026-05-08 00:20 40.79374 -80.67910 42994 ft 482 kts 207°
2026-05-08 00:21 40.73037 -80.70793 43001 ft 479 kts 207°
2026-05-08 00:21 40.66742 -80.73655 42993 ft 478 kts 207°
2026-05-08 00:22 40.60437 -80.76514 42995 ft 479 kts 207°
2026-05-08 00:22 40.54127 -80.79369 42959 ft 479 kts 207°
2026-05-08 00:23 40.47848 -80.82204 42985 ft 476 kts 208°
2026-05-08 00:23 40.41572 -80.85036 42984 ft 477 kts 208°
2026-05-08 00:24 40.35287 -80.87862 42977 ft 477 kts 208°
2026-05-08 00:24 40.29015 -80.90678 42975 ft 477 kts 208°
2026-05-08 00:25 40.22710 -80.93506 42981 ft 480 kts 207°
2026-05-08 00:25 40.16439 -80.96306 42982 ft 479 kts 207°
2026-05-08 00:26 40.10127 -80.99126 42983 ft 476 kts 208°
2026-05-08 00:26 40.03884 -81.01905 42980 ft 474 kts 208°
2026-05-08 00:27 39.97631 -81.04688 42975 ft 475 kts 208°
2026-05-08 00:27 39.91378 -81.07460 42981 ft 475 kts 208°
2026-05-08 00:28 39.85186 -81.10202 42986 ft 472 kts 208°
2026-05-08 00:28 39.78966 -81.12954 42981 ft 472 kts 208°
2026-05-08 00:29 39.72738 -81.15701 42984 ft 472 kts 208°
2026-05-08 00:29 39.66522 -81.18436 42989 ft 469 kts 208°
2026-05-08 00:30 39.60344 -81.21154 42987 ft 469 kts 208°
2026-05-08 00:30 39.54164 -81.23866 42995 ft 469 kts 208°
2026-05-08 00:31 39.47992 -81.26637 42992 ft 468 kts 209°
2026-05-08 00:31 39.41849 -81.29444 42992 ft 470 kts 208°
2026-05-08 00:32 39.35706 -81.32198 43007 ft 470 kts 209°
2026-05-08 00:32 39.29535 -81.34995 43007 ft 471 kts 209°
2026-05-08 00:33 39.23355 -81.37765 42999 ft 468 kts 209°
2026-05-08 00:33 39.17191 -81.40542 42994 ft 469 kts 209°